User: anonymous   Login
Location: Stoke Bliss
(52.2667°N, 2.5167°W)
Time: 19:19:32
(UTC+00:00)
Language:

Meteor 2-12 Rocket - Orbit

View from above orbital plane
View from above orbital plane
View from above satellite
View from above satellite

Ground track
Ground track

The orbit data is extracted from the following two-line orbital elements,

1 15517U 85013B   21136.61850297  .00000017  00000-0  14827-5 0  9992
2 15517  82.5382  23.1805 0015660 134.8547 225.3889 13.84896844833026
Epoch (UTC): 16 May 2021 14:50:38
Eccentricity: 0.0015660
inclination: 82.5382°
perigee height: 935 km
apogee height: 958 km
right ascension of ascending node: 23.1805°
argument of perigee: 134.8547°
revolutions per day: 13.84896844
mean anomaly at epoch: 225.3889°
orbit number at epoch: 83302

The dashed part of the orbit path shows where the satellite is in the earth's shadow,  

DLR